Powrót do katalogu

COSMOS 1289

AktywnyNawigacjaLEO
NORAD 12638·PAYLOAD·🇷🇺 Russia

Wystrzelony Aug 6, 1981 z Plesetsk Cosmodrome

Loading…

Następne Przeloty (najbliższe 24 godziny)

TLE

ŚwieżeSource: Space-Track

Epoka: Sep 14, 2026, 08:01 UTC

1 12638U 81074C   26257.33409286 -.00000018  00000-0 -10033-4 0  9999
2 12638  74.0361  24.1007 0025373 312.4551  74.8567 12.54726180 65978

Śledź COSMOS 1289 w czasie rzeczywistym z AllMySat

Download on the App Store